{"data":{"norad_id":36592,"epoch":"2026-05-25T03:53:16.431936Z","epoch_age_seconds":71134,"freshness":"FRESH","line1":"1 36592U 10025A   26145.16199574  .00000151  00000+0  00000+0 0  9998","line2":"2 36592   0.0626 111.2371 0002145  83.0715 137.1645  1.00271140 52980","mean_motion":1.0027114,"eccentricity":0.0002145,"inclination_deg":0.0626,"raan_deg":111.2371,"arg_perigee_deg":83.0715,"mean_anomaly_deg":137.1645,"bstar":0,"rev_number":5298,"period_min":1436.1061418071,"perigee_km":35777.731405283,"apogee_km":35795.820152865,"semimajor_km":42164.912779074,"source":"CELESTRAK","updated_at":"2026-05-25T13:38:13.892974Z"}}